TimeCST,TemperatureF,Dew PointF,Humidity,Sea Level PressureIn,VisibilityMPH,Wind Direction,Wind SpeedMPH,Gust SpeedMPH,PrecipitationIn,Events,Conditions,WindDirDegrees,DateUTC
12:51 AM,30.9,28.0,89,30.45,10.0,West,3.5,-,N/A,,Clear,260,2013-12-26 06:51:00
1:51 AM,32.0,28.9,88,30.44,10.0,West,4.6,-,N/A,,Clear,270,2013-12-26 07:51:00
2:51 AM,30.0,27.0,88,30.44,10.0,West,4.6,-,N/A,,Clear,260,2013-12-26 08:51:00
3:51 AM,28.0,26.1,92,30.43,10.0,Calm,Calm,-,N/A,,Clear,0,2013-12-26 09:51:00
4:51 AM,28.9,26.1,89,30.42,10.0,West,4.6,-,N/A,,Clear,270,2013-12-26 10:51:00
5:51 AM,28.0,26.1,92,30.42,10.0,West,6.9,-,N/A,,Clear,280,2013-12-26 11:51:00
6:51 AM,26.1,24.1,92,30.44,10.0,West,3.5,-,N/A,,Clear,260,2013-12-26 12:51:00
7:51 AM,27.0,24.1,89,30.45,10.0,West,5.8,-,N/A,,Clear,260,2013-12-26 13:51:00
8:51 AM,32.0,28.0,85,30.46,10.0,West,4.6,-,N/A,,Clear,270,2013-12-26 14:51:00
9:51 AM,37.0,30.9,79,30.47,10.0,West,3.5,-,N/A,,Clear,270,2013-12-26 15:51:00
10:51 AM,43.0,30.9,62,30.47,10.0,Calm,Calm,-,N/A,,Clear,0,2013-12-26 16:51:00
11:51 AM,46.9,27.0,46,30.44,10.0,Calm,Calm,-,N/A,,Clear,0,2013-12-26 17:51:00
12:51 PM,50.0,24.1,36,30.40,10.0,Calm,Calm,-,N/A,,Clear,0,2013-12-26 18:51:00
1:51 PM,52.0,24.1,34,30.35,10.0,Calm,Calm,-,N/A,,Clear,0,2013-12-26 19:51:00
2:51 PM,52.0,23.0,32,30.33,10.0,Calm,Calm,-,N/A,,Clear,0,2013-12-26 20:51:00
3:51 PM,52.0,23.0,32,30.33,10.0,Calm,Calm,-,N/A,,Clear,0,2013-12-26 21:51:00
4:51 PM,52.0,24.1,34,30.33,10.0,East,4.6,-,N/A,,Clear,80,2013-12-26 22:51:00
5:51 PM,48.0,24.1,39,30.35,10.0,ENE,5.8,-,N/A,,Clear,70,2013-12-26 23:51:00
6:51 PM,43.0,24.1,47,30.38,10.0,SE,4.6,-,N/A,,Clear,130,2013-12-27 00:51:00
7:51 PM,41.0,26.1,55,30.38,10.0,ESE,6.9,-,N/A,,Clear,120,2013-12-27 01:51:00
8:51 PM,37.9,27.0,65,30.39,10.0,SE,5.8,-,N/A,,Clear,130,2013-12-27 02:51:00
9:51 PM,37.0,26.1,65,30.38,10.0,SSE,5.8,-,N/A,,Clear,160,2013-12-27 03:51:00
10:51 PM,36.0,26.1,67,30.38,10.0,South,5.8,-,N/A,,Clear,180,2013-12-27 04:51:00
11:51 PM,33.1,26.1,75,30.39,10.0,SSW,3.5,-,N/A,,Clear,210,2013-12-27 05:51:00